Tell, TX

4:07 PM CST on February 06, 2016 (GMT -0600)
Childress Municipal

Weather History for KCDS - September, 2013

Change the Weather History Date:

Monday, September 9, 2013

  Actual Average Record
Temperature  
Mean Temperature 81 °F 77 °F  
Max Temperature 93 °F 90 °F 102 °F (1945)
Min Temperature 69 °F 64 °F 48 °F (1941)
Degree Days  
Heating Degree Days 0 0  
Month to date heating degree days 0 0  
Since 1 July heating degree days 0 0  
Cooling Degree Days 16 12  
Month to date cooling degree days 160 118  
Year to date cooling degree days 2091 1949  
Growing Degree Days 31 (Base 50)    
Moisture  
Dew Point 59 °F    
Average Humidity 52    
Maximum Humidity 73    
Minimum Humidity 30    
Precipitation  
Precipitation 0.00 in 0.08 in 3.04 in (1913)
Month to date precipitation 0.02 0.81  
Year to date precipitation 13.26 17.90  
Snow  
Snow 0.00 in 0.00 in - ()
Month to date snowfall 0.0 0.0  
Since 1 July snowfall 0.0 0.0  
Since 1 September snowfall 0.0 0.0  
Snow Depth -    
Sea Level Pressure  
Sea Level Pressure 29.88 in    
Wind  
Wind Speed 11 mph (South)    
Max Wind Speed 16 mph    
Max Gust Speed 32 mph    
Visibility 10 miles    
Events      
T = Trace of Precipitation, MM = Missing Value Source: NWS Daily Summary

Daily Weather History Graph

Daily Weather History Graph

Search for Another Location

Airport or City:

Trip Planner

Search our weather history database for the weather conditions in past years. The results will help you decide how hot, cold, wet, or windy it might be!

Date:

Astronomy

Sep. 09, 2013 Rise Set
Actual Time 7:20 AM CDT 7:55 PM CDT
Civil Twilight 6:54 AM CDT 8:21 PM CDT
Nautical Twilight 6:25 AM CDT 8:50 PM CDT
Astronomical Twilight 5:54 AM CDT 9:21 PM CDT
Moon 11:30 AM CDT (9/9) 10:27 PM CDT (9/9)
Length of Visible Light 13h 26m
Length of Day
12h 35m
Waxing Crescent, 19% of the Moon is Illuminated
Sep 9
Waxing Crescent
Sep 12
First Quarter
Sep 19
Full
Sep 26
Last Quarter
Oct 4
New

Hourly Weather History & Observations

Time (CDT) Temp. Heat Index Dew Point Humidity Pressure Visibility Wind Dir Wind Speed Gust Speed Precip Events Conditions
12:53 AM 75.9 °F - 57.0 °F 52% 29.88 in 10.0 mi SSE 6.9 mph 32.2 mph N/A   Clear
1:53 AM 73.0 °F - 57.0 °F 57% 29.88 in 10.0 mi SSE 6.9 mph - N/A   Clear
2:53 AM 72.0 °F - 57.9 °F 61% 29.88 in 10.0 mi SSE 8.1 mph - N/A   Clear
3:53 AM 71.1 °F - 59.0 °F 66% 29.88 in 10.0 mi North - - N/A   Clear
4:53 AM 71.1 °F - 60.1 °F 68% 29.88 in 10.0 mi South 8.1 mph - N/A   Clear
5:53 AM 70.0 °F - 60.1 °F 71% 29.89 in 10.0 mi South 8.1 mph - N/A   Clear
6:53 AM 69.1 °F - 60.1 °F 73% 29.90 in 10.0 mi South 9.2 mph - N/A   Clear
7:53 AM 72.0 °F - 61.0 °F 68% 29.91 in 10.0 mi South 9.2 mph - N/A   Clear
8:53 AM 75.9 °F - 62.1 °F 62% 29.93 in 10.0 mi SSW 11.5 mph - N/A   Clear
9:53 AM 80.1 °F 81.1 °F 61.0 °F 52% 29.94 in 10.0 mi SSW 11.5 mph - N/A   Clear
10:53 AM 84.0 °F 84.4 °F 61.0 °F 46% 29.93 in 10.0 mi South 10.4 mph 18.4 mph N/A   Clear
11:53 AM 87.1 °F 86.5 °F 59.0 °F 39% 29.92 in 10.0 mi South 10.4 mph 19.6 mph N/A   Clear
12:53 PM 90.0 °F 89.7 °F 60.1 °F 37% 29.91 in 10.0 mi South 15.0 mph 23.0 mph N/A   Clear
1:53 PM 90.0 °F 89.1 °F 59.0 °F 35% 29.90 in 10.0 mi SSE 15.0 mph 21.9 mph N/A   Clear
2:53 PM 91.9 °F 91.2 °F 59.0 °F 33% 29.88 in 10.0 mi South 13.8 mph 23.0 mph N/A   Scattered Clouds
3:53 PM 91.9 °F 90.6 °F 57.0 °F 31% 29.86 in 10.0 mi South 12.7 mph 24.2 mph N/A   Partly Cloudy
4:53 PM 93.0 °F 91.7 °F 57.0 °F 30% 29.83 in 10.0 mi South 15.0 mph 21.9 mph N/A   Mostly Cloudy
5:53 PM 90.0 °F 88.6 °F 57.0 °F 33% 29.83 in 10.0 mi South 16.1 mph 21.9 mph N/A   Mostly Cloudy
6:53 PM 89.1 °F 87.7 °F 57.0 °F 34% 29.83 in 10.0 mi South 11.5 mph 20.7 mph N/A   Clear
7:53 PM 87.1 °F 85.7 °F 55.9 °F 35% 29.83 in 10.0 mi SSE 12.7 mph 20.7 mph N/A   Clear
8:53 PM 84.0 °F 83.3 °F 57.0 °F 40% 29.86 in 10.0 mi SSE 9.2 mph - N/A   Clear
9:53 PM 82.9 °F 82.6 °F 57.9 °F 42% 29.88 in 10.0 mi SSE 12.7 mph - N/A   Clear
10:53 PM 82.0 °F 82.0 °F 57.9 °F 44% 29.89 in 10.0 mi South 10.4 mph - N/A   Clear
11:53 PM 79.0 °F - 57.9 °F 48% 29.90 in 10.0 mi South 10.4 mph - N/A   Clear